Weather History for KHVN - May, 2014

Change the Weather History Date:

Monday, May 26, 2014

  Actual Average Record
Temperature  
Mean Temperature 66 °F -  
Max Temperature 82 °F 67 °F 86 °F (1981)
Min Temperature 53 °F 51 °F 41 °F (1972)
Cooling Degree Days 1    
Growing Degree Days 16 (Base 50)    
Moisture  
Dew Point 53 °F    
Average Humidity 65    
Maximum Humidity 94    
Minimum Humidity 35    
Precipitation  
Precipitation 0.00 in - - ()
Sea Level Pressure  
Sea Level Pressure 29.95 in    
Wind  
Wind Speed 3 mph (SW)    
Max Wind Speed 13 mph    
Max Gust Speed 22 mph    
Visibility 10 miles    
Events      
Averages and records for this station are not official NWS values.
T = Trace of Precipitation, MM = Missing Value Source: NWS Daily Summary

Daily Weather History Graph

Daily Weather History Graph

Search for Another Location

Airport or City:

Trip Planner

Search our weather history database for the weather conditions in past years. The results will help you decide how hot, cold, wet, or windy it might be!

Date:

Astronomy

May. 26, 2014 Rise Set
Actual Time 5:24 AM EDT 8:13 PM EDT
Civil Twilight 4:51 AM EDT 8:46 PM EDT
Nautical Twilight 4:10 AM EDT 9:27 PM EDT
Astronomical Twilight 3:23 AM EDT 10:14 PM EDT
Moon 4:05 AM EDT (5/26) 6:12 PM EDT (5/26)
Length of Visible Light 15h 54m
Length of Day
14h 49m
Waning Crescent, 5% of the Moon is Illuminated
May 26
Waning Crescent
May 28
New
Jun 5
First Quarter
Jun 13
Full
Jun 19
Last Quarter

Hourly Weather History & Observations

Time (EDT) Temp. Dew Point Humidity Pressure Visibility Wind Dir Wind Speed Gust Speed Precip Events Conditions
12:53 AM 55.9 °F 53.1 °F 90% 30.04 in 10.0 mi Calm Calm - N/A   Clear
1:53 AM 54.0 °F 51.1 °F 90% 30.03 in 7.0 mi Calm Calm - N/A   Clear
2:53 AM 54.0 °F 52.0 °F 93% 30.02 in 9.0 mi Calm Calm - N/A   Clear
3:53 AM 53.1 °F 51.1 °F 93% 30.01 in 10.0 mi Calm Calm - N/A   Scattered Clouds
4:53 AM 55.4 °F 53.6 °F 94% 30.01 in 10.0 mi Calm Calm - N/A   Clear
5:53 AM 57.0 °F 54.0 °F 89% 30.02 in 10.0 mi Calm Calm - N/A   Overcast
6:53 AM 57.9 °F 55.0 °F 90% 30.03 in 10.0 mi Calm Calm - N/A   Overcast
7:53 AM 59.0 °F 55.9 °F 90% 30.03 in 10.0 mi Calm Calm - N/A   Overcast
8:53 AM 63.0 °F 57.9 °F 84% 30.03 in 10.0 mi Calm Calm - N/A   Overcast
9:53 AM 68.0 °F 53.1 °F 59% 30.01 in 10.0 mi Variable 3.5 mph - N/A   Mostly Cloudy
10:53 AM 71.1 °F 55.0 °F 57% 30.01 in 10.0 mi SSW 6.9 mph - N/A   Mostly Cloudy
11:53 AM 73.0 °F 52.0 °F 48% 29.99 in 10.0 mi SSW 10.4 mph 17.3 mph N/A   Mostly Cloudy
12:53 PM 73.0 °F 53.1 °F 49% 29.96 in 10.0 mi SW 9.2 mph 20.7 mph N/A   Mostly Cloudy
1:53 PM 77.0 °F 51.1 °F 40% 29.94 in 10.0 mi SW 11.5 mph 19.6 mph N/A   Mostly Cloudy
2:53 PM 79.0 °F 48.9 °F 35% 29.92 in 10.0 mi SSW 12.7 mph 21.9 mph N/A   Mostly Cloudy
3:53 PM 78.1 °F 48.9 °F 36% 29.89 in 10.0 mi SW 9.2 mph 19.6 mph N/A   Clear
4:53 PM 77.0 °F 52.0 °F 42% 29.87 in 10.0 mi SW 9.2 mph 18.4 mph N/A   Mostly Cloudy
5:53 PM 75.0 °F 52.0 °F 44% 29.86 in 10.0 mi SW 9.2 mph 16.1 mph N/A   Mostly Cloudy
6:53 PM 75.2 °F 53.6 °F 47% 29.86 in 10.0 mi SSW 11.5 mph 16.1 mph N/A   Mostly Cloudy
7:53 PM 73.0 °F 55.0 °F 53% 29.87 in 10.0 mi SW 9.2 mph 17.3 mph N/A   Mostly Cloudy
8:53 PM 73.0 °F 55.0 °F 53% 29.87 in 10.0 mi SW 9.2 mph - N/A   Mostly Cloudy
9:53 PM 69.1 °F 54.0 °F 58% 29.88 in 10.0 mi Variable 5.8 mph - N/A   Mostly Cloudy
10:53 PM 64.4 °F 53.6 °F 68% 29.88 in 10.0 mi South 4.6 mph - N/A   Clear
11:53 PM 66.0 °F 55.0 °F 68% 29.88 in 10.0 mi SSW 3.5 mph - N/A   Clear